Temperature
16 16 15 15 15 15 15 14 14 14 14 13 13 13 13 13 13 12 12 12 12 12 12 11 11 11 11 11 11 11 11 11 11 12 12 11 11 11 11 11 11 11 11
16 15 15 15 15 15 14 14 14 14 13 13 13 13 12 12 12 12 12 12 12 12 11 11 11 11 11 11 11 11 11 11 11 11 11 11 11 11 11 11 11 11 11
15 15 15 15 15 14 14 14 14 13 13 13 13 12 12 12 12 12 12 12 11 11 11 11 11 10 10 10 10 10 10 10 10 11 11 11 10 10 10 10 10 11 11
15 15 14 14 14 14 14 14 13 13 13 13 13 12 12 12 12 12 12 11 11 11 11 10 10 10 10 10 10 10 10 10 10 10 10 10 10 10 10 10 10 10 10
15 14 14 14 14 13 13 13 13 13 13 12 12 12 12 12 11 11 11 11 11 10 10 10 10 10 10 10 10 10 9 9 10 10 10 10 10 10 10 10 10 10 10
14 14 14 13 13 13 13 13 13 13 12 12 12 12 11 11 11 11 11 10 10 10 10 10 10 9 9 9 9 9 9 9 9 9 9 9 9 9 9 9 9 9 9
14 13 13 13 13 13 12 12 12 12 12 12 12 11 11 11 11 11 11 10 10 10 9 9 9 9 9 9 9 9 9 9 9 8 9 9 9 9 9 9 9 9 9
13 13 13 13 13 12 12 12 12 12 12 12 12 11 11 11 11 11 11 10 9 9 9 9 9 9 9 9 8 8 8 8 9 8 8 9 9 9 9 9 9 9 9
13 13 13 12 12 12 12 12 12 11 11 11 11 11 11 10 11 10 10 9 9 9 9 9 9 8 9 9 8 8 8 8 8 9 9 9 9 9 9 9 9 8 8
13 12 12 12 12 12 12 11 11 11 11 11 11 10 10 10 10 10 9 9 9 9 9 8 9 8 8 8 8 8 8 8 8 8 8 8 8 8 8 8 8 8 8
12 12 12 12 12 11 11 11 11 11 11 10 10 10 9 9 9 9 9 8 8 8 8 8 8 8 8 8 8 8 8 8 7 8 8 8 8 8 8 8 8 8 7
12 12 12 11 11 11 11 11 10 10 10 9 9 9 8 9 9 9 9 8 8 8 8 8 8 8 8 8 7 7 8 7 7 7 7 7 7 7 8 8 8 7 7
11 11 11 11 11 11 11 10 10 9 9 9 8 8 8 8 8 8 8 8 8 8 7 7 7 7 7 7 7 7 7 7 7 7 7 7 7 7 7 7 7 7 7
11 11 11 11 11 10 10 10 9 9 9 8 8 8 8 8 7 7 7 7 7 7 7 7 7 7 7 7 7 7 6 6 7 7 7 6 7 7 7 7 7 7 7
10 10 10 10 10 10 9 9 9 9 9 8 8 8 7 7 7 7 7 7 7 7 6 6 6 6 6 6 6 6 6 6 6 6 6 6 6 6 6 6 6 6 6
10 10 10 10 9 9 9 9 8 8 8 8 8 7 7 7 7 7 7 6 6 6 6 5 5 5 5 5 5 5 5 5 5 5 5 5 5 6 6 6 6 6 5
9 9 9 9 9 8 8 8 8 7 7 7 7 7 7 7 7 6 6 6 6 5 5 5 5 5 5 5 5 5 5 5 5 5 5 5 5 5 5 5 5 5 5
9 9 9 8 8 8 8 7 7 7 6 6 6 6 6 6 6 6 5 5 5 5 4 4 4 4 4 4 4 4 4 4 4 4 4 4 5 4 4 5 4 4 4
8 8 8 8 8 8 7 7 7 6 6 6 6 6 6 5 5 5 5 5 4 4 4 4 4 4 4 4 4 4 4 4 4 4 4 4 4 4 4 4 4 4 4
8 8 7 7 7 7 7 6 6 6 6 5 5 5 5 5 4 4 4 4 4 4 4 3 3 3 3 3 3 3 3 3 3 3 3 3 4 3 3 3 4 3 3
7 7 7 7 6 6 6 6 6 5 5 5 5 5 5 5 4 4 4 4 4 3 3 3 3 3 3 2 2 3 3 3 2 2 3 3 3 3 3 3 3 3 3
6 6 6 6 6 6 5 5 5 5 5 4 4 4 4 4 4 3 3 3 3 3 3 2 2 2 2 2 2 2 2 2 2 2 2 2 2 2 2 2 3 2 3
6 6 6 5 5 5 5 5 5 4 4 4 4 4 4 3 3 3 3 3 3 3 2 2 2 2 2 2 2 2 2 2 2 2 2 2 2 2 2 2 2 2 2
5 5 5 5 5 5 4 4 4 4 4 4 3 3 3 3 3 3 3 3 2 2 2 2 2 2 2 1 2 2 2 2 2 1 1 1 1 1 2 2 2 1 1
5 5 5 5 5 4 4 4 4 3 3 3 3 3 3 3 3 2 2 2 2 2 2 2 1 1 1 1 1 1 1 1 1 1 1 1 1 1 1 1 1 1 1
5 5 4 4 4 4 4 4 3 3 3 3 3 3 2 2 2 2 2 2 2 1 1 1 1 1 1 1 1 1 1 1 1 1 1 1 1 1 1 1 1 0 0
Wind_Speed
7 7 6 5 5 5 4 4 4 4 4 3 3 3 3 2 2 2 3 3 3 3 3 3 3 2 2 3 3 3 3 4 5 5 3 3 3 4 3 4 4 4 4
7 7 6 5 5 5 4 4 4 4 3 3 3 3 2 2 2 3 3 3 3 3 3 3 2 2 3 3 3 3 3 4 5 6 5 4 5 4 4 5 4 4 5
6 6 6 5 5 5 4 4 4 4 4 3 3 3 2 2 2 2 3 3 3 3 2 3 3 3 3 3 3 3 3 4 4 5 5 4 4 4 4 5 5 4 5
6 6 6 5 5 4 4 4 4 4 4 3 3 2 2 2 2 2 2 2 2 2 2 2 3 3 3 4 3 3 4 4 5 5 4 4 4 4 4 4 4 4 5
6 6 6 5 4 4 4 4 4 4 4 3 3 2 2 2 1 2 2 2 3 3 3 3 2 2 3 3 3 3 4 4 4 4 4 4 4 3 4 4 5 5 5
6 5 5 5 5 4 4 4 4 4 3 3 3 2 2 1 1 1 2 3 3 3 3 3 2 3 2 3 3 4 5 5 4 4 4 5 6 5 4 5 5 5 4
5 5 5 5 5 4 4 4 4 4 3 3 2 2 2 2 2 1 2 3 3 3 3 3 2 2 3 4 4 6 6 5 6 6 6 6 6 6 5 6 6 6 6
5 5 5 5 5 5 5 4 4 4 3 3 3 2 2 2 3 1 2 3 3 3 3 3 3 3 3 4 4 4 4 4 5 6 7 6 6 6 6 7 7 6 6
5 5 5 5 5 5 5 5 4 4 4 3 2 2 2 2 3 1 2 2 2 3 3 3 3 3 1 4 5 5 5 4 4 5 6 6 6 6 6 5 5 5 5
5 5 5 5 5 5 5 5 4 4 4 3 2 2 2 1 2 1 2 1 2 2 2 2 1 3 3 3 5 5 5 5 5 4 5 6 6 5 5 6 5 6 6
4 4 5 5 5 5 4 4 4 4 4 3 3 2 1 0 2 1 1 1 1 2 2 2 1 1 3 3 5 5 5 6 5 5 4 4 4 4 4 5 5 6 7
4 5 4 4 4 4 4 4 4 4 4 3 3 2 1 1 1 1 0 2 3 2 2 2 2 2 2 3 4 4 5 6 4 4 4 4 4 4 4 5 6 6 7
5 5 4 4 4 4 5 5 4 4 3 3 3 2 2 2 1 2 1 1 2 2 2 2 3 2 3 3 2 4 5 4 4 4 4 5 5 5 5 5 6 6 7
6 6 5 5 4 4 4 4 4 4 4 3 3 3 2 2 1 1 1 1 2 2 1 0 1 2 3 3 3 3 3 3 4 4 5 5 5 4 4 4 5 5 5
7 6 5 5 5 5 4 3 4 3 3 3 3 3 3 3 1 1 2 2 2 2 2 2 2 2 2 2 3 3 3 4 4 4 5 5 5 5 5 4 4 5 5
6 6 5 5 5 4 4 3 2 1 2 1 1 2 2 1 1 1 1 1 1 2 2 2 3 3 3 3 4 4 4 4 5 5 5 5 5 5 5 5 5 5 6
7 6 5 5 5 5 5 4 3 2 2 2 2 1 1 1 2 2 1 1 2 2 3 3 3 3 3 4 4 4 5 5 5 5 5 5 6 5 5 5 5 6 6
7 6 6 5 5 5 5 4 4 4 3 2 2 2 2 2 2 2 3 2 2 3 3 3 4 4 4 4 5 5 5 5 5 5 5 6 6 6 6 6 6 7 7
6 5 5 5 5 5 5 4 4 4 4 3 2 2 3 3 3 3 3 3 3 3 3 4 4 4 4 5 5 5 5 5 6 5 5 6 6 6 6 6 6 7 8
5 6 6 5 5 5 4 4 4 4 4 3 3 2 2 2 2 2 3 3 3 3 4 4 4 4 5 5 5 5 5 5 6 5 6 6 6 6 6 7 7 7 7
5 6 7 6 5 5 5 5 4 4 4 4 3 2 3 3 3 3 3 3 3 4 4 4 4 4 4 4 4 5 6 6 5 5 6 6 6 6 6 6 7 7 7
5 5 5 5 5 5 5 5 4 5 5 4 3 3 4 4 3 3 4 4 4 4 4 4 4 4 4 4 5 5 5 6 6 6 6 6 6 6 7 6 7 6 6
5 5 5 4 4 5 5 5 5 5 5 4 4 4 4 4 4 4 4 4 3 4 4 4 4 4 4 4 5 5 5 6 6 6 6 6 6 6 6 7 7 7 6
5 5 5 5 5 5 5 5 5 5 5 4 4 4 4 4 4 4 4 3 3 4 4 4 4 5 6 5 5 5 6 6 7 7 8 7 7 6 6 6 7 7 6
5 5 5 5 5 5 5 5 5 5 5 5 4 4 4 4 4 4 4 4 4 4 4 4 4 5 6 6 6 6 6 6 7 7 7 7 7 7 6 6 6 6 6
5 5 4 4 5 5 5 5 5 5 5 4 4 4 4 4 4 4 4 4 4 4 4 4 5 5 6 6 7 7 6 7 8 8 7 6 6 6 6 5 6 6 6
Wind_Direction
190 190 193 195 191 189 197 198 203 199 197 198 209 218 219 218 219 217 235 236 241 236 234 243 247 259 255 251 251 254 255 261 267 276 278 277 270 268 260 260 256 250 233
191 190 193 188 189 191 190 187 194 196 198 200 201 212 218 228 237 230 231 235 239 244 249 255 260 257 259 260 260 258 258 260 266 273 277 280 280 280 275 269 264 259 262
184 186 190 188 191 193 185 179 188 190 191 196 197 205 210 222 232 231 228 227 229 238 247 252 261 261 259 258 261 264 265 264 261 262 273 282 277 280 277 270 269 265 263
181 187 189 192 193 193 183 180 185 185 189 195 198 200 202 211 220 219 220 226 230 237 247 255 265 265 267 265 261 268 271 269 262 264 270 272 272 278 273 269 270 266 266
181 186 189 189 187 184 176 178 179 181 189 188 191 195 200 215 234 247 227 229 233 240 246 246 256 291 324 305 292 284 277 266 261 264 268 275 274 279 282 276 276 277 270
182 187 183 183 178 178 176 174 172 175 182 178 191 192 197 202 78 332 281 234 240 241 247 250 243 236 226 230 265 288 291 275 271 267 268 269 276 273 282 281 282 281 278
183 182 177 177 174 175 170 170 171 173 172 175 184 187 193 162 128 154 287 263 248 253 256 253 253 261 259 255 234 228 240 252 267 272 268 274 279 282 280 277 279 279 282
184 181 176 177 175 172 172 173 173 170 168 176 176 179 175 146 130 162 238 243 245 253 261 264 256 257 271 280 268 260 260 256 253 259 269 276 282 289 281 276 279 281 283
187 185 182 181 178 175 179 181 177 172 168 171 164 169 177 156 136 169 243 232 243 255 266 275 277 270 319 288 269 266 267 268 246 253 273 280 294 298 294 275 276 273 276
194 186 181 184 183 181 183 181 176 172 168 162 159 176 185 173 128 156 266 239 254 262 268 275 324 309 323 295 274 272 271 276 277 260 249 249 259 256 248 261 268 272 277
190 183 177 182 184 181 175 171 169 166 162 164 163 168 179 157 129 130 297 271 274 272 276 282 307 337 315 293 282 278 290 293 284 280 275 270 266 268 263 262 265 266 269
185 183 181 178 170 165 163 166 165 163 165 167 172 174 186 176 113 130 81 326 322 287 288 297 336 357 315 291 281 302 291 280 276 275 275 275 275 278 278 278 274 269 267
186 185 184 178 172 167 167 167 166 167 173 179 188 198 200 200 158 131 163 237 311 297 308 356 344 325 288 270 278 292 279 272 275 273 277 280 282 284 285 284 279 276 273
188 188 186 183 178 176 171 173 174 176 182 190 198 207 207 205 216 216 224 224 218 254 280 269 235 251 263 290 289 275 279 287 280 274 276 279 284 285 279 278 279 280 277
188 188 189 189 184 185 182 182 189 192 197 203 210 213 214 225 236 316 271 264 281 291 290 282 282 276 279 289 292 293 291 287 278 278 278 280 282 281 282 283 280 278 276
191 191 192 191 189 190 183 173 122 173 147 188 264 243 224 225 142 165 246 290 308 275 259 259 266 272 277 284 288 291 292 292 290 285 282 280 278 279 282 284 281 282 282
198 195 193 192 190 191 188 183 178 161 148 170 186 205 215 165 153 164 177 201 220 221 238 256 265 270 275 279 283 285 286 291 293 289 285 282 278 276 278 280 278 277 278
200 195 193 193 193 193 193 193 192 191 198 208 187 168 173 170 171 178 190 208 226 224 247 259 267 272 276 281 283 285 288 289 287 288 285 281 279 276 274 274 272 273 275
198 196 196 197 195 195 193 193 197 202 204 203 199 185 170 175 177 192 200 228 239 246 253 260 268 273 276 278 283 287 287 289 288 285 285 285 281 278 278 277 277 277 273
197 188 195 196 194 194 194 194 197 203 207 208 206 200 185 199 223 225 232 247 249 252 256 260 266 274 279 280 282 283 285 286 289 290 289 288 287 283 281 281 281 281 277
197 189 187 192 195 196 197 199 200 204 209 213 215 202 201 220 232 238 239 245 249 256 261 265 269 273 274 276 277 278 280 284 287 289 292 292 291 286 282 280 281 279 280
194 191 194 193 194 196 198 202 205 208 211 214 215 201 199 228 237 241 244 249 252 256 260 264 267 269 271 272 275 277 280 283 285 286 287 288 288 286 284 282 281 282 280
193 188 190 191 193 188 198 208 209 212 215 217 217 216 217 232 238 242 246 250 251 254 254 258 265 271 276 274 276 276 278 280 283 286 286 283 282 282 282 281 282 284 281
192 189 189 190 190 193 201 207 210 213 215 218 218 220 223 231 238 244 248 252 255 256 257 258 263 271 279 281 281 282 285 295 295 287 284 283 283 284 283 281 280 279 281
192 191 193 194 193 197 203 206 210 214 217 220 223 225 228 233 238 242 246 249 253 256 258 263 268 271 274 277 286 294 309 310 301 295 287 283 282 282 283 285 284 282 276
192 193 196 198 199 201 205 207 210 214 218 222 225 228 231 233 236 240 241 246 251 254 257 260 268 274 279 281 289 300 307 303 298 292 286 283 281 282 285 286 289 286 284
Height
1518 1520 1521 1522 1523 1524 1525 1526 1526 1527 1527 1528 1528 1528 1528 1528 1528 1528 1527 1527 1527 1527 1527 1526 1526 1526 1525 1525 1525 1525 1525 1525 1525 1524 1524 1523 1522 1521 1520 1519 1518 1517 1516
1515 1517 1519 1520 1521 1522 1523 1523 1524 1524 1525 1525 1526 1526 1526 1526 1526 1526 1525 1525 1525 1524 1524 1524 1524 1523 1523 1523 1523 1523 1522 1522 1522 1521 1521 1520 1519 1518 1517 1516 1516 1515 1514
1512 1514 1516 1517 1518 1519 1520 1521 1521 1522 1522 1523 1523 1523 1524 1523 1523 1523 1523 1522 1522 1522 1522 1522 1521 1521 1521 1520 1520 1520 1520 1519 1519 1519 1518 1517 1516 1515 1514 1513 1513 1512 1511
1509 1511 1513 1514 1515 1516 1517 1518 1519 1519 1520 1520 1521 1521 1521 1521 1521 1521 1520 1520 1520 1519 1519 1519 1519 1518 1518 1518 1517 1517 1517 1516 1516 1516 1515 1514 1513 1512 1512 1511 1510 1509 1507
1506 1508 1509 1511 1512 1513 1515 1515 1516 1517 1517 1518 1518 1518 1518 1519 1518 1518 1518 1517 1517 1517 1517 1516 1516 1515 1515 1514 1514 1514 1513 1513 1513 1512 1512 1511 1510 1509 1509 1508 1507 1505 1504
1503 1505 1506 1507 1509 1510 1511 1512 1513 1514 1514 1515 1515 1515 1515 1515 1515 1515 1515 1515 1515 1515 1514 1514 1513 1512 1512 1511 1511 1510 1510 1510 1510 1509 1509 1508 1508 1507 1506 1505 1504 1503 1501
1500 1502 1503 1504 1506 1507 1508 1509 1510 1511 1511 1512 1512 1512 1512 1512 1512 1512 1512 1512 1512 1512 1512 1511 1511 1510 1509 1509 1508 1507 1507 1506 1506 1506 1506 1505 1504 1503 1502 1501 1500 1499 1498
1498 1499 1500 1501 1502 1504 1505 1506 1507 1508 1508 1509 1509 1509 1510 1509 1509 1509 1509 1509 1509 1509 1509 1508 1508 1507 1506 1506 1505 1505 1504 1504 1503 1503 1502 1501 1501 1500 1499 1498 1497 1496 1495
1495 1496 1497 1498 1499 1500 1502 1503 1504 1505 1506 1506 1507 1507 1507 1507 1506 1506 1507 1507 1506 1506 1506 1505 1505 1504 1503 1502 1502 1502 1501 1500 1499 1498 1498 1497 1497 1496 1495 1495 1494 1493 1491
1492 1493 1494 1495 1496 1497 1499 1500 1501 1502 1503 1503 1504 1504 1504 1504 1504 1504 1504 1504 1504 1503 1503 1502 1501 1501 1500 1499 1499 1499 1498 1497 1496 1496 1495 1494 1493 1493 1492 1491 1490 1489 1488
1489 1490 1491 1492 1494 1495 1496 1497 1498 1499 1500 1501 1501 1501 1501 1501 1501 1501 1501 1501 1501 1500 1500 1499 1498 1497 1496 1496 1495 1495 1494 1494 1493 1492 1491 1491 1490 1489 1488 1488 1487 1486 1485
1486 1487 1488 1490 1491 1492 1493 1494 1495 1496 1497 1497 1498 1498 1498 1498 1498 1498 1498 1498 1498 1497 1496 1496 1495 1494 1493 1493 1492 1491 1491 1490 1490 1489 1488 1487 1486 1485 1484 1484 1483 1482 1481
1483 1484 1485 1486 1488 1489 1490 1491 1492 1493 1494 1494 1495 1495 1495 1495 1495 1495 1495 1494 1494 1494 1493 1492 1492 1491 1490 1490 1489 1488 1488 1487 1486 1485 1484 1484 1483 1482 1481 1480 1479 1477 1476
1479 1481 1482 1483 1484 1486 1487 1488 1489 1490 1490 1491 1492 1492 1492 1492 1491 1491 1491 1491 1491 1490 1490 1489 1489 1488 1487 1487 1486 1485 1485 1483 1482 1481 1480 1479 1479 1478 1477 1475 1474 1473 1472
1476 1477 1479 1480 1481 1482 1484 1485 1486 1487 1487 1488 1488 1489 1488 1488 1488 1488 1487 1487 1487 1487 1486 1486 1486 1485 1484 1483 1483 1482 1481 1480 1478 1477 1477 1475 1474 1474 1473 1471 1470 1469 1468
1473 1474 1475 1476 1477 1479 1480 1481 1482 1483 1484 1484 1485 1485 1485 1485 1484 1484 1484 1484 1484 1483 1483 1482 1482 1482 1481 1480 1479 1478 1477 1476 1475 1473 1472 1471 1470 1469 1468 1467 1466 1465 1463
1469 1470 1472 1473 1474 1475 1476 1476 1477 1479 1480 1481 1481 1481 1481 1481 1481 1480 1480 1480 1480 1480 1479 1479 1479 1478 1477 1476 1475 1474 1473 1472 1471 1469 1468 1467 1466 1465 1464 1463 1462 1460 1459
1465 1467 1468 1469 1470 1471 1472 1473 1474 1475 1476 1476 1477 1477 1478 1478 1477 1477 1477 1477 1476 1476 1475 1475 1475 1474 1473 1472 1471 1470 1469 1468 1466 1465 1464 1463 1462 1461 1459 1458 1457 1456 1455
1461 1462 1464 1465 1466 1468 1469 1470 1471 1472 1473 1473 1473 1473 1474 1474 1474 1474 1474 1473 1472 1472 1472 1471 1471 1470 1469 1468 1467 1466 1465 1463 1462 1461 1460 1458 1457 1456 1455 1454 1453 1451 1450
1457 1458 1460 1461 1462 1463 1465 1466 1467 1468 1469 1469 1469 1469 1469 1470 1470 1470 1470 1469 1469 1468 1468 1467 1467 1466 1465 1464 1463 1461 1460 1459 1457 1456 1455 1453 1452 1451 1450 1449 1448 1446 1445
1452 1454 1455 1456 1458 1459 1460 1462 1463 1464 1465 1465 1466 1466 1466 1466 1466 1466 1466 1465 1464 1464 1464 1463 1462 1462 1461 1460 1458 1457 1456 1455 1453 1451 1450 1448 1447 1446 1445 1444 1443 1441 1440
1448 1449 1451 1452 1453 1455 1456 1458 1459 1460 1461 1461 1461 1462 1462 1462 1462 1462 1462 1461 1460 1460 1460 1459 1458 1457 1456 1455 1454 1453 1451 1450 1449 1447 1445 1444 1443 1441 1440 1439 1438 1436 1435
1444 1445 1447 1448 1449 1451 1452 1454 1455 1456 1457 1457 1457 1458 1458 1458 1458 1458 1457 1457 1456 1456 1455 1454 1454 1453 1452 1451 1450 1448 1447 1445 1444 1442 1441 1439 1438 1437 1436 1434 1433 1431 1430
1441 1442 1443 1444 1445 1447 1448 1450 1451 1452 1452 1453 1453 1453 1453 1454 1454 1454 1453 1453 1452 1451 1451 1450 1449 1448 1447 1446 1445 1444 1442 1441 1439 1438 1436 1435 1433 1432 1431 1429 1428 1427 1425
1437 1438 1439 1440 1441 1443 1444 1445 1447 1447 1448 1448 1449 1449 1449 1449 1449 1449 1449 1448 1447 1447 1446 1445 1445 1444 1442 1441 1440 1439 1437 1436 1435 1433 1432 1430 1429 1427 1426 1425 1423 1422 1421
1433 1435 1436 1437 1438 1439 1440 1441 1442 1443 1444 1444 1444 1445 1445 1445 1445 1444 1444 1443 1443 1442 1442 1441 1440 1439 1438 1437 1435 1434 1432 1431 1430 1428 1427 1425 1424 1423 1421 1420 1419 1418 1417